This is the latest recevied weather packets stored in our database for station/object KE8GJZ-2. If no packets are shown the sender has not sent any weather packets the latest 10 day(s).
| Time | Temp. | Humidity | Pressure | Rain* | Wind** | Luminosity | Snow |
|---|---|---|---|---|---|---|---|
| 1777671126 | 7.22° C | 58% | 1016.1 hPa | 0 mm | - | 406 W/m² | - |
| 1777670823 | 7.78° C | 60% | 1016 hPa | 0 mm | - | 410 W/m² | - |
| 1777670519 | 7.78° C | 62% | 1016.2 hPa | 0 mm | - | 408 W/m² | - |
| 1777670216 | 7.78° C | 58% | 1016.1 hPa | 0 mm | - | 441 W/m² | - |
| 1777669913 | 7.78° C | 63% | 1016 hPa | 0 mm | - | 461 W/m² | - |
| 1777669610 | 7.78° C | 56% | 1016.2 hPa | 0 mm | - | 481 W/m² | - |
| 1777669307 | 8.33° C | 62% | 1016.2 hPa | 0 mm | - | 323 W/m² | - |
| 1777669003 | 8.33° C | 60% | 1016.1 hPa | 0 mm | - | 495 W/m² | - |
| 1777668701 | 8.33° C | 57% | 1015.9 hPa | 0 mm | - | 502 W/m² | - |
| 1777668397 | 8.33° C | 59% | 1016 hPa | 0 mm | - | 475 W/m² | - |
| 1777668093 | 8.33° C | 58% | 1016.2 hPa | 0 mm | - | 552 W/m² | - |
| 1777667790 | 8.33° C | 61% | 1016.1 hPa | 0 mm | - | 534 W/m² | - |
| 1777667487 | 8.33° C | 57% | 1015.8 hPa | 0 mm | - | 549 W/m² | - |
| 1777667185 | 8.33° C | 60% | 1016 hPa | 0 mm | - | 620 W/m² | - |
| 1777666881 | 8.33° C | 56% | 1016.2 hPa | 0 mm | - | 688 W/m² | - |
| 1777666579 | 8.33° C | 58% | 1016.1 hPa | 0 mm | - | 214 W/m² | - |
| 1777666275 | 8.33° C | 59% | 1016 hPa | 0 mm | - | 240 W/m² | - |
| 1777665972 | 8.33° C | 58% | 1016.1 hPa | 0 mm | - | 244 W/m² | - |
| 1777665670 | 8.89° C | 58% | 1015.9 hPa | 0 mm | - | 318 W/m² | - |
| 1777665367 | 7.78° C | 61% | 1016.1 hPa | 0 mm | - | 503 W/m² | - |
| 1777665062 | 7.78° C | 64% | 1015.9 hPa | 0 mm | - | 179 W/m² | - |
| 1777664758 | 8.89° C | 57% | 1016.2 hPa | 0 mm | - | 190 W/m² | - |
| 1777664454 | 8.33° C | 61% | 1015.8 hPa | 0 mm | - | 778 W/m² | - |
| 1777664151 | 8.33° C | 64% | 1015.9 hPa | 0 mm | - | 523 W/m² | - |
| 1777663850 | 7.78° C | 64% | 1016 hPa | 0 mm | - | 317 W/m² | - |
* Rain latest hour (hover to see other rain measurements)
** Current wind speed in m/s (hover to see current wind gust speed)